{"data":{"norad_id":64426,"epoch":"2026-05-24T16:55:22.098432Z","epoch_age_seconds":96450,"freshness":"FRESH","line1":"1 64426U 25129Q   26144.70511688  .00005519  00000+0  46978-3 0  9990","line2":"2 64426  70.0005 242.7886 0003401 273.0629  87.0141 14.98344393 52613","mean_motion":14.98344393,"eccentricity":0.0003401,"inclination_deg":70.0005,"raan_deg":242.7886,"arg_perigee_deg":273.0629,"mean_anomaly_deg":87.0141,"bstar":0.00046978,"rev_number":5261,"period_min":96.106075928033,"perigee_km":569.64763667073,"apogee_km":574.37512760026,"semimajor_km":6950.1483821355,"source":"CELESTRAK","updated_at":"2026-05-25T13:38:20.441912Z"}}